Weather History for Myrtle Beach, SC

Change the Weather History Date:

Sunday, February 24, 2013

  Actual Average Record
Temperature  
Mean Temperature 54 °F -  
Max Temperature 64 °F 58 °F 78 °F (1996)
Min Temperature 42 °F 39 °F 26 °F (2009)
Degree Days  
Heating Degree Days 11    
Growing Degree Days 4 (Base 50)    
Moisture  
Dew Point 45 °F    
Average Humidity 86    
Maximum Humidity 100    
Minimum Humidity 37    
Precipitation  
Precipitation 0.01 in - - ()
Sea Level Pressure  
Sea Level Pressure 29.90 in    
Wind  
Wind Speed 8 mph (NW)    
Max Wind Speed 15 mph    
Max Gust Speed 21 mph    
Visibility 6 miles    
Events      
Averages and records for this station are not official NWS values.
T = Trace of Precipitation, MM = Missing Value Source: NWS Daily Summary

Daily Weather History Graph

Daily Weather History Graph

Search for Another Location

Airport:

Trip Planner

Search our weather history database for the weather conditions in past years. The results will help you decide how hot, cold, wet, or windy it might be!

Date:

Astronomy

Feb. 24, 2013 Rise Set
Actual Time 6:49 AM EST 6:08 PM EST
Civil Twilight 6:24 AM EST 6:33 PM EST
Nautical Twilight 5:55 AM EST 7:02 PM EST
Astronomical Twilight 5:26 AM EST 7:31 PM EST
Moon 5:17 PM EST (2/24) 5:44 AM EST (2/24)
Length of Visible Light 12h 08m
Length of Day
11h 18m
Waxing Gibbous, 99% of the Moon is Illuminated
Feb 24
Waxing Gibbous
Feb 25
Full
Mar 4
Last Quarter
Mar 11
New
Mar 19
First Quarter

Hourly Weather History & Observations

Time (EST) Temp. Windchill Dew Point Humidity Pressure Visibility Wind Dir Wind Speed Gust Speed Precip Events Conditions
12:15 AM 48.2 °F - 48.2 °F 100% 29.80 in 10.0 mi SSE 5.8 mph - N/A   Mostly Cloudy
12:35 AM 48.2 °F - 46.4 °F 93% 29.83 in 10.0 mi WNW 4.6 mph - 0.01 in   Overcast
12:55 AM 48.2 °F - 48.2 °F 100% 29.76 in 7.0 mi ENE 4.6 mph - 0.01 in   Overcast
1:15 AM 48.2 °F - 46.4 °F 93% 29.81 in 7.0 mi NW 12.7 mph 20.7 mph N/A   Overcast
1:35 AM 48.2 °F - 46.4 °F 93% 29.81 in 7.0 mi NW 8.1 mph - N/A   Overcast
1:55 AM 46.4 °F 41.5 °F 46.4 °F 100% 29.82 in 6.0 mi NW 10.4 mph - N/A   Overcast
2:15 AM 46.4 °F 41.1 °F 44.6 °F 93% 29.83 in 7.0 mi NW 11.5 mph - N/A   Overcast
2:35 AM 46.4 °F 42.4 °F 44.6 °F 93% 29.83 in 3.0 mi NW 8.1 mph - N/A   Overcast
2:55 AM 46.4 °F 41.9 °F 44.6 °F 93% 29.83 in 1.5 mi WNW 9.2 mph - N/A   Overcast
3:15 AM 46.4 °F 42.4 °F 44.6 °F 93% 29.83 in 1.0 mi WNW 8.1 mph - N/A   Overcast
3:35 AM 46.4 °F 42.4 °F 44.6 °F 93% 29.84 in 1.0 mi WNW 8.1 mph - N/A   Overcast
3:55 AM 46.4 °F 41.9 °F 46.4 °F 100% 29.83 in 1.0 mi West 9.2 mph - N/A   Overcast
4:15 AM 46.4 °F 40.7 °F 44.6 °F 93% 29.84 in 2.5 mi WNW 12.7 mph - N/A   Overcast
4:35 AM 46.4 °F 40.7 °F 44.6 °F 93% 29.85 in 4.0 mi WNW 12.7 mph - N/A   Overcast
4:55 AM 46.4 °F 41.9 °F 44.6 °F 93% 29.86 in 5.0 mi WNW 9.2 mph - N/A   Overcast
5:15 AM 46.4 °F 41.9 °F 44.6 °F 93% 29.86 in 10.0 mi WNW 9.2 mph - N/A   Overcast
5:35 AM 46.4 °F 41.9 °F 44.6 °F 93% 29.86 in 10.0 mi WNW 9.2 mph - N/A   Overcast
5:50 AM 46.4 °F 41.9 °F 44.6 °F 93% 29.86 in 7.0 mi NW 9.2 mph - N/A   Overcast
6:45 AM 46.4 °F 41.1 °F 44.6 °F 93% 29.88 in 5.0 mi WNW 11.5 mph - N/A   Overcast
7:30 AM 46.4 °F 41.1 °F 44.6 °F 93% 29.91 in 2.0 mi NW 11.5 mph - N/A   Overcast
7:45 AM 46.4 °F 41.1 °F 44.6 °F 93% 29.91 in 2.0 mi NW 11.5 mph - N/A   Overcast
8:45 AM 46.4 °F 41.1 °F 46.4 °F 100% 29.95 in 2.0 mi NW 11.5 mph - N/A   Overcast
9:45 AM 50.0 °F - 46.4 °F 87% 29.96 in 10.0 mi NW 15.0 mph - N/A   Overcast
10:11 AM 51.8 °F - 46.4 °F 82% 29.96 in 10.0 mi NNW 15.0 mph - N/A   Scattered Clouds
10:50 AM 53.6 °F - 46.4 °F 77% 29.97 in 10.0 mi NNW 15.0 mph - N/A   Partly Cloudy
11:45 AM 57.2 °F - 46.4 °F 67% 29.97 in 10.0 mi NNW 12.7 mph - N/A   Partly Cloudy
12:50 PM 60.8 °F - 46.4 °F 59% 29.95 in 10.0 mi NW 10.4 mph - N/A   Clear
1:50 PM 62.6 °F - 44.6 °F 52% 29.93 in 10.0 mi NW 12.7 mph - N/A   Clear
2:45 PM 64.4 °F - 39.2 °F 40% 29.92 in 10.0 mi NW 11.5 mph - N/A   Clear
3:45 PM 64.4 °F - 37.4 °F 37% 29.92 in 10.0 mi NW 13.8 mph - N/A   Clear
4:45 PM 64.4 °F - 39.2 °F 40% 29.93 in 10.0 mi South 8.1 mph - N/A   Clear
5:45 PM 57.2 °F - 46.4 °F 67% 29.94 in 10.0 mi SSW 10.4 mph - N/A   Clear
7:45 PM 51.8 °F - 48.2 °F 88% 29.99 in 10.0 mi Calm Calm - N/A   Clear
8:50 PM 48.2 °F - 46.4 °F 93% 30.00 in 10.0 mi Calm Calm - N/A   Clear
9:50 PM 48.2 °F - 48.2 °F 100% 30.02 in 10.0 mi Calm Calm - N/A   Clear
11:15 PM 44.6 °F - 42.8 °F 93% 30.00 in 0.5 mi Calm Calm - N/A   Unknown
11:35 PM 44.6 °F - 44.6 °F 100% 30.00 in 1.0 mi Calm Calm - N/A   Clear
11:55 PM 42.8 °F - 42.8 °F 100% 30.00 in 0.2 mi Calm Calm - N/A   Unknown